Year,Month,Day,Hour,Minute,Value (Times are PST for temperature in C)
2010,10,24,00,00,10.10
2010,10,24,00,01,10.10
2010,10,24,00,02,10.10
2010,10,24,00,03,10.10
2010,10,24,00,04,10.10
2010,10,24,00,05,10.10
2010,10,24,00,06,10.10
2010,10,24,00,07,10.00
2010,10,24,00,08,10.00
2010,10,24,00,09,10.00
2010,10,24,00,10,10.00
2010,10,24,00,11,10.00
2010,10,24,00,12,10.00
2010,10,24,00,13,9.90
2010,10,24,00,14,9.90
2010,10,24,00,15,9.90
2010,10,24,00,16,9.90
2010,10,24,00,17,9.90
2010,10,24,00,18,9.90
2010,10,24,00,19,9.90
2010,10,24,00,20,9.90
2010,10,24,00,21,9.90
2010,10,24,00,22,9.90
2010,10,24,00,23,9.90
2010,10,24,00,24,9.90
2010,10,24,00,25,9.90
2010,10,24,00,26,9.90
2010,10,24,00,27,10.00
2010,10,24,00,30,9.90
2010,10,24,00,31,9.90
2010,10,24,00,32,9.90
2010,10,24,00,33,9.90
2010,10,24,00,34,9.90
2010,10,24,00,35,9.90
2010,10,24,00,36,9.90
2010,10,24,00,37,9.90
2010,10,24,00,38,9.80
2010,10,24,00,39,9.80
2010,10,24,00,40,9.80
2010,10,24,00,41,9.80
2010,10,24,00,42,9.80
2010,10,24,00,43,9.80
2010,10,24,00,44,9.80
2010,10,24,00,45,9.70
2010,10,24,00,46,9.70
2010,10,24,00,48,9.70
2010,10,24,00,49,9.70
2010,10,24,00,50,9.70
2010,10,24,00,51,9.70
2010,10,24,00,52,9.70
2010,10,24,00,53,9.70
2010,10,24,00,54,9.70
2010,10,24,00,55,9.60
2010,10,24,00,56,9.60
2010,10,24,00,57,9.60
2010,10,24,00,58,9.60
2010,10,24,00,59,9.60
2010,10,24,01,01,9.60
2010,10,24,01,02,9.60
2010,10,24,01,03,9.60
2010,10,24,01,04,9.60
2010,10,24,01,05,9.60
2010,10,24,01,06,9.60
2010,10,24,01,07,9.60
2010,10,24,01,08,9.60
2010,10,24,01,09,9.60
2010,10,24,01,10,9.60
2010,10,24,01,11,9.70
2010,10,24,01,12,9.70
2010,10,24,01,13,9.70
2010,10,24,01,14,9.70
2010,10,24,01,15,9.70
2010,10,24,01,16,9.70
2010,10,24,01,17,9.70
2010,10,24,01,18,9.70
2010,10,24,01,19,9.70
2010,10,24,01,20,9.70
2010,10,24,01,21,9.70
2010,10,24,01,22,9.70
2010,10,24,01,23,9.70
2010,10,24,01,24,9.70
2010,10,24,01,25,9.70
2010,10,24,01,26,9.70
2010,10,24,01,27,9.70
2010,10,24,01,28,9.70
2010,10,24,01,29,9.70
2010,10,24,01,30,9.70
2010,10,24,01,31,9.70
2010,10,24,01,32,9.70
2010,10,24,01,33,9.70
2010,10,24,01,34,9.70
2010,10,24,01,35,9.70
2010,10,24,01,36,9.70
2010,10,24,01,37,9.70
2010,10,24,01,38,9.70
2010,10,24,01,39,9.70
2010,10,24,01,40,9.70
2010,10,24,01,41,9.70
2010,10,24,01,42,9.70
2010,10,24,01,43,9.70
2010,10,24,01,44,9.70
2010,10,24,01,45,9.70
2010,10,24,01,46,9.70
2010,10,24,01,47,9.60
2010,10,24,01,48,9.60
2010,10,24,01,49,9.60
2010,10,24,01,50,9.60
2010,10,24,01,51,9.60
2010,10,24,01,52,9.60
2010,10,24,01,53,9.60
2010,10,24,01,54,9.60
2010,10,24,01,55,9.60
2010,10,24,01,56,9.60
2010,10,24,01,57,9.60
2010,10,24,01,58,9.60
2010,10,24,01,59,9.60
2010,10,24,02,00,9.60
2010,10,24,02,01,9.60
2010,10,24,02,03,9.60
2010,10,24,02,04,9.60
2010,10,24,02,05,9.60
2010,10,24,02,06,9.60
2010,10,24,02,07,9.60
2010,10,24,02,08,9.60
2010,10,24,02,09,9.60
2010,10,24,02,10,9.60
2010,10,24,02,11,9.60
2010,10,24,02,12,9.60
2010,10,24,02,13,9.60
2010,10,24,02,14,9.60
2010,10,24,02,15,9.60
2010,10,24,02,16,9.60
2010,10,24,02,18,9.60
2010,10,24,02,19,9.60
2010,10,24,02,20,9.60
2010,10,24,02,21,9.60
2010,10,24,02,22,9.60
2010,10,24,02,23,9.60
2010,10,24,02,24,9.60
2010,10,24,02,25,9.60
2010,10,24,02,26,9.60
2010,10,24,02,27,9.60
2010,10,24,02,28,9.50
2010,10,24,02,29,9.50
2010,10,24,02,30,9.50
2010,10,24,02,31,9.50
2010,10,24,02,32,9.50
2010,10,24,02,33,9.50
2010,10,24,02,34,9.50
2010,10,24,02,35,9.50
2010,10,24,02,36,9.50
2010,10,24,02,37,9.60
2010,10,24,02,38,9.60
2010,10,24,02,39,9.60
2010,10,24,02,40,9.60
2010,10,24,02,41,9.60
2010,10,24,02,42,9.60
2010,10,24,02,43,9.60
2010,10,24,02,44,9.50
2010,10,24,02,45,9.60
2010,10,24,02,46,9.60
2010,10,24,02,47,9.60
2010,10,24,02,48,9.60
2010,10,24,02,49,9.60
2010,10,24,02,50,9.60
2010,10,24,02,51,9.60
2010,10,24,02,52,9.60
2010,10,24,02,53,9.60
2010,10,24,02,54,9.60
2010,10,24,02,55,9.60
2010,10,24,02,56,9.60
2010,10,24,02,57,9.60
2010,10,24,02,58,9.60
2010,10,24,02,59,9.60
2010,10,24,03,00,9.60
2010,10,24,03,01,9.60
2010,10,24,03,02,9.60
2010,10,24,03,03,9.60
2010,10,24,03,06,9.60
2010,10,24,03,07,9.70
2010,10,24,03,08,9.70
2010,10,24,03,09,9.70
2010,10,24,03,10,9.70
2010,10,24,03,11,9.70
2010,10,24,03,12,9.70
2010,10,24,03,13,9.70
2010,10,24,03,14,9.70
2010,10,24,03,15,9.70
2010,10,24,03,16,9.70
2010,10,24,03,17,9.70
2010,10,24,03,18,9.70
2010,10,24,03,19,9.70
2010,10,24,03,20,9.70
2010,10,24,03,21,9.70
2010,10,24,03,22,9.70
2010,10,24,03,23,9.80
2010,10,24,03,24,9.80
2010,10,24,03,25,9.80
2010,10,24,03,26,9.80
2010,10,24,03,27,9.80
2010,10,24,03,28,9.80
2010,10,24,03,29,9.80
2010,10,24,03,30,9.80
2010,10,24,03,31,9.80
2010,10,24,03,32,9.80
2010,10,24,03,33,9.80
2010,10,24,03,34,9.70
2010,10,24,03,35,9.70
2010,10,24,03,36,9.70
2010,10,24,03,37,9.70
2010,10,24,03,38,9.70
2010,10,24,03,39,9.70
2010,10,24,03,40,9.70
2010,10,24,03,41,9.70
2010,10,24,03,42,9.70
2010,10,24,03,43,9.70
2010,10,24,03,44,9.70
2010,10,24,03,45,9.70
2010,10,24,03,46,9.70
2010,10,24,03,47,9.70
2010,10,24,03,49,9.70
2010,10,24,03,50,9.70
2010,10,24,03,51,9.70
2010,10,24,03,52,9.70
2010,10,24,03,53,9.70
2010,10,24,03,54,9.70
2010,10,24,03,55,9.70
2010,10,24,03,56,9.70
2010,10,24,03,57,9.70
2010,10,24,03,58,9.70
2010,10,24,03,59,9.70
2010,10,24,04,00,9.70
2010,10,24,04,01,9.70
2010,10,24,04,02,9.70
2010,10,24,04,03,9.70
2010,10,24,04,04,9.70
2010,10,24,04,05,9.70
2010,10,24,04,06,9.70
2010,10,24,04,07,9.70
2010,10,24,04,08,9.80
2010,10,24,04,09,9.80
2010,10,24,04,10,9.80
2010,10,24,04,11,9.80
2010,10,24,04,12,9.80
2010,10,24,04,13,9.80
2010,10,24,04,14,9.80
2010,10,24,04,15,9.80
2010,10,24,04,16,9.80
2010,10,24,04,17,9.80
2010,10,24,04,18,9.80
2010,10,24,04,19,9.80
2010,10,24,04,20,9.80
2010,10,24,04,21,9.80
2010,10,24,04,22,9.80
2010,10,24,04,23,9.80
2010,10,24,04,24,9.80
2010,10,24,04,25,9.80
2010,10,24,04,26,9.80
2010,10,24,04,27,9.80
2010,10,24,04,28,9.80
2010,10,24,04,29,9.90
2010,10,24,04,30,10.00
2010,10,24,04,31,10.00
2010,10,24,04,32,10.10
2010,10,24,04,33,10.10
2010,10,24,04,34,10.20
2010,10,24,04,35,10.30
2010,10,24,04,36,10.40
2010,10,24,04,37,10.50
2010,10,24,04,38,10.60
2010,10,24,04,39,10.60
2010,10,24,04,40,10.60
2010,10,24,04,41,10.60
2010,10,24,04,42,10.60
2010,10,24,04,43,10.50
2010,10,24,04,44,10.50
2010,10,24,04,45,10.50
2010,10,24,04,46,10.50
2010,10,24,04,47,10.50
2010,10,24,04,48,10.40
2010,10,24,04,49,10.40
2010,10,24,04,50,10.40
2010,10,24,04,51,10.40
2010,10,24,04,52,10.40
2010,10,24,04,53,10.40
2010,10,24,04,54,10.30
2010,10,24,04,55,10.30
2010,10,24,04,56,10.30
2010,10,24,04,57,10.30
2010,10,24,04,58,10.30
2010,10,24,04,59,10.20
2010,10,24,05,00,10.20
2010,10,24,05,01,10.20
2010,10,24,05,02,10.20
2010,10,24,05,03,10.20
2010,10,24,05,04,10.20
2010,10,24,05,05,10.10
2010,10,24,05,06,10.10
2010,10,24,05,07,10.10
2010,10,24,05,08,10.00
2010,10,24,05,09,10.00
2010,10,24,05,10,9.90
2010,10,24,05,11,9.90
2010,10,24,05,12,9.90
2010,10,24,05,13,9.90
2010,10,24,05,16,9.80
2010,10,24,05,17,9.80
2010,10,24,05,18,9.80
2010,10,24,05,19,9.80
2010,10,24,05,20,9.80
2010,10,24,05,21,9.80
2010,10,24,05,22,9.80
2010,10,24,05,23,9.70
2010,10,24,05,24,9.70
2010,10,24,05,25,9.70
2010,10,24,05,26,9.70
2010,10,24,05,27,9.70
2010,10,24,05,28,9.70
2010,10,24,05,29,9.70
2010,10,24,05,30,9.70
2010,10,24,05,31,9.70
2010,10,24,05,32,9.70
2010,10,24,05,33,9.70
2010,10,24,05,34,9.70
2010,10,24,05,35,9.80
2010,10,24,05,36,9.80
2010,10,24,05,37,9.80
2010,10,24,05,38,9.80
2010,10,24,05,39,9.70
2010,10,24,05,40,9.70
2010,10,24,05,41,9.70
2010,10,24,05,42,9.70
2010,10,24,05,43,9.70
2010,10,24,05,44,9.70
2010,10,24,05,45,9.70
2010,10,24,05,46,9.70
2010,10,24,05,47,9.60
2010,10,24,05,48,9.60
2010,10,24,05,49,9.60
2010,10,24,05,50,9.60
2010,10,24,05,51,9.60
2010,10,24,05,52,9.60
2010,10,24,05,53,9.60
2010,10,24,05,54,9.60
2010,10,24,05,55,9.60
2010,10,24,05,56,9.60
2010,10,24,05,57,9.60
2010,10,24,05,58,9.60
2010,10,24,05,59,9.60
2010,10,24,06,00,9.60
2010,10,24,06,01,9.60
2010,10,24,06,02,9.70
2010,10,24,06,04,9.60
2010,10,24,06,05,9.60
2010,10,24,06,06,9.60
2010,10,24,06,07,9.60
2010,10,24,06,08,9.60
2010,10,24,06,09,9.60
2010,10,24,06,10,9.50
2010,10,24,06,11,9.50
2010,10,24,06,12,9.50
2010,10,24,06,13,9.50
2010,10,24,06,14,9.50
2010,10,24,06,15,9.50
2010,10,24,06,16,9.50
2010,10,24,06,17,9.50
2010,10,24,06,18,9.50
2010,10,24,06,19,9.50
2010,10,24,06,20,9.50
2010,10,24,06,21,9.50
2010,10,24,06,22,9.50
2010,10,24,06,23,9.50
2010,10,24,06,24,9.40
2010,10,24,06,25,9.40
2010,10,24,06,26,9.40
2010,10,24,06,27,9.50
2010,10,24,06,28,9.50
2010,10,24,06,29,9.50
2010,10,24,06,30,9.50
2010,10,24,06,31,9.50
2010,10,24,06,32,9.50
2010,10,24,06,33,9.50
2010,10,24,06,34,9.50
2010,10,24,06,35,9.50
2010,10,24,06,36,9.50
2010,10,24,06,37,9.50
2010,10,24,06,38,9.60
2010,10,24,06,39,9.60
2010,10,24,06,40,9.60
2010,10,24,06,41,9.60
2010,10,24,06,42,9.60
2010,10,24,06,44,9.60
2010,10,24,06,45,9.60
2010,10,24,06,46,9.60
2010,10,24,06,47,9.60
2010,10,24,06,48,9.50
2010,10,24,06,49,9.50
2010,10,24,06,50,9.50
2010,10,24,06,51,9.50
2010,10,24,06,52,9.50
2010,10,24,06,53,9.50
2010,10,24,06,54,9.50
2010,10,24,06,55,9.50
2010,10,24,06,56,9.50
2010,10,24,06,57,9.50
2010,10,24,06,58,9.50
2010,10,24,06,59,9.40
2010,10,24,07,00,9.50
2010,10,24,07,01,9.40
2010,10,24,07,02,9.40
2010,10,24,07,03,9.40
2010,10,24,07,04,9.40
2010,10,24,07,05,9.40
2010,10,24,07,06,9.40
2010,10,24,07,07,9.40
2010,10,24,07,08,9.40
2010,10,24,07,09,9.40
2010,10,24,07,10,9.40
2010,10,24,07,11,9.40
2010,10,24,07,12,9.40
2010,10,24,07,13,9.40
2010,10,24,07,14,9.40
2010,10,24,07,15,9.40
2010,10,24,07,16,9.40
2010,10,24,07,17,9.50
2010,10,24,07,18,9.60
2010,10,24,07,19,9.70
2010,10,24,07,20,9.70
2010,10,24,07,21,9.80
2010,10,24,07,22,9.80
2010,10,24,07,23,9.90
2010,10,24,07,24,10.00
2010,10,24,07,25,10.00
2010,10,24,07,27,10.10
2010,10,24,07,28,10.10
2010,10,24,07,29,10.20
2010,10,24,07,30,10.20
2010,10,24,07,31,10.20
2010,10,24,07,32,10.30
2010,10,24,07,33,10.30
2010,10,24,07,34,10.30
2010,10,24,07,35,10.30
2010,10,24,07,36,10.30
2010,10,24,07,37,10.30
2010,10,24,07,38,10.30
2010,10,24,07,39,10.30
2010,10,24,07,40,10.30
2010,10,24,07,41,10.30
2010,10,24,07,42,10.30
2010,10,24,07,43,10.30
2010,10,24,07,44,10.20
2010,10,24,07,45,10.20
2010,10,24,07,46,10.20
2010,10,24,07,47,10.20
2010,10,24,07,48,10.30
2010,10,24,07,49,10.30
2010,10,24,07,50,10.30
2010,10,24,07,51,10.30
2010,10,24,07,52,10.30
2010,10,24,07,53,10.20
2010,10,24,07,54,10.20
2010,10,24,07,55,10.30
2010,10,24,07,56,10.30
2010,10,24,07,57,10.30
2010,10,24,07,58,10.30
2010,10,24,07,59,10.30
2010,10,24,08,00,10.30
2010,10,24,08,01,10.30
2010,10,24,08,02,10.30
2010,10,24,08,03,10.40
2010,10,24,08,04,10.50
2010,10,24,08,05,10.60
2010,10,24,08,06,10.60
2010,10,24,08,07,10.60
2010,10,24,08,08,10.60
2010,10,24,08,09,10.60
2010,10,24,08,10,10.60
2010,10,24,08,11,10.60
2010,10,24,08,12,10.60
2010,10,24,08,13,10.60
2010,10,24,08,14,10.60
2010,10,24,08,15,10.60
2010,10,24,08,18,10.60
2010,10,24,08,19,10.60
2010,10,24,08,20,10.60
2010,10,24,08,21,10.60
2010,10,24,08,22,10.70
2010,10,24,08,23,10.70
2010,10,24,08,24,10.70
2010,10,24,08,25,10.70
2010,10,24,08,26,10.70
2010,10,24,08,27,10.70
2010,10,24,08,29,10.60
2010,10,24,08,30,10.60
2010,10,24,08,31,10.60
2010,10,24,08,32,10.60
2010,10,24,08,33,10.60
2010,10,24,08,34,10.50
2010,10,24,08,35,10.50
2010,10,24,08,36,10.40
2010,10,24,08,37,10.40
2010,10,24,08,38,10.40
2010,10,24,08,39,10.30
2010,10,24,08,40,10.30
2010,10,24,08,41,10.30
2010,10,24,08,44,10.20
2010,10,24,08,45,10.20
2010,10,24,08,46,10.20
2010,10,24,08,47,10.20
2010,10,24,08,48,10.10
2010,10,24,08,49,10.10
2010,10,24,08,50,10.10
2010,10,24,08,51,10.10
2010,10,24,08,52,10.10
2010,10,24,08,53,10.00
2010,10,24,08,54,10.00
2010,10,24,08,55,9.90
2010,10,24,08,56,9.90
2010,10,24,08,57,9.90
2010,10,24,08,58,9.90
2010,10,24,08,59,9.90
2010,10,24,09,00,9.90
2010,10,24,09,01,9.90
2010,10,24,09,02,9.90
2010,10,24,09,03,9.90
2010,10,24,09,04,9.90
2010,10,24,09,05,9.80
2010,10,24,09,06,9.80
2010,10,24,09,07,9.80
2010,10,24,09,08,9.80
2010,10,24,09,09,9.80
2010,10,24,09,10,9.80
2010,10,24,09,11,9.80
2010,10,24,09,12,9.80
2010,10,24,09,13,9.70
2010,10,24,09,14,9.70
2010,10,24,09,15,9.70
2010,10,24,09,16,9.70
2010,10,24,09,17,9.70
2010,10,24,09,18,9.70
2010,10,24,09,19,9.60
2010,10,24,09,22,9.60
2010,10,24,09,23,9.60
2010,10,24,09,24,9.60
2010,10,24,09,25,9.60
2010,10,24,09,26,9.60
2010,10,24,09,27,9.60
2010,10,24,09,28,9.60
2010,10,24,09,29,9.60
2010,10,24,09,30,9.60
2010,10,24,09,31,9.60
2010,10,24,09,32,9.60
2010,10,24,09,33,9.60
2010,10,24,09,34,9.60
2010,10,24,09,35,9.60
2010,10,24,09,36,9.60
2010,10,24,09,37,9.60
2010,10,24,09,38,9.60
2010,10,24,09,39,9.50
2010,10,24,09,40,9.50
2010,10,24,09,41,9.50
2010,10,24,09,42,9.50
2010,10,24,09,43,9.50
2010,10,24,09,44,9.50
2010,10,24,09,45,9.50
2010,10,24,09,46,9.50
2010,10,24,09,47,9.50
2010,10,24,09,48,9.50
2010,10,24,09,49,9.50
2010,10,24,09,50,9.50
2010,10,24,09,51,9.50
2010,10,24,09,52,9.50
2010,10,24,09,54,9.50
2010,10,24,09,55,9.50
2010,10,24,09,56,9.50
2010,10,24,09,57,9.60
2010,10,24,09,58,9.60
2010,10,24,09,59,9.60
2010,10,24,10,00,9.50
2010,10,24,10,01,9.60
2010,10,24,10,02,9.60
2010,10,24,10,03,9.60
2010,10,24,10,04,9.60
2010,10,24,10,05,9.60
2010,10,24,10,06,9.60
2010,10,24,10,07,9.60
2010,10,24,10,08,9.60
2010,10,24,10,09,9.60
2010,10,24,10,10,9.60
2010,10,24,10,11,9.60
2010,10,24,10,12,9.60
2010,10,24,10,13,9.60
2010,10,24,10,14,9.60
2010,10,24,10,15,9.60
2010,10,24,10,16,9.60
2010,10,24,10,17,9.60
2010,10,24,10,18,9.50
2010,10,24,10,19,9.50
2010,10,24,10,20,9.50
2010,10,24,10,21,9.50
2010,10,24,10,22,9.50
2010,10,24,10,23,9.50
2010,10,24,10,24,9.50
2010,10,24,10,25,9.50
2010,10,24,10,26,9.50
2010,10,24,10,27,9.60
2010,10,24,10,28,9.60
2010,10,24,10,29,9.60
2010,10,24,10,30,9.70
2010,10,24,10,31,9.70
2010,10,24,10,32,9.70
2010,10,24,10,33,9.80
2010,10,24,10,34,9.80
2010,10,24,10,35,9.90
2010,10,24,10,36,9.90
2010,10,24,10,37,10.00
2010,10,24,10,38,10.00
2010,10,24,10,39,10.00
2010,10,24,10,40,10.10
2010,10,24,10,41,10.10
2010,10,24,10,42,10.10
2010,10,24,10,43,10.10
2010,10,24,10,44,10.10
2010,10,24,10,45,10.10
2010,10,24,10,46,10.10
2010,10,24,10,47,10.10
2010,10,24,10,48,10.10
2010,10,24,10,49,10.00
2010,10,24,10,50,10.00
2010,10,24,10,51,10.00
2010,10,24,10,52,10.00
2010,10,24,10,53,10.00
2010,10,24,10,54,10.00
2010,10,24,10,55,10.10
2010,10,24,10,56,10.10
2010,10,24,10,57,10.10
2010,10,24,11,00,10.30
2010,10,24,11,01,10.30
2010,10,24,11,02,10.30
2010,10,24,11,03,10.40
2010,10,24,11,04,10.40
2010,10,24,11,05,10.50
2010,10,24,11,06,10.50
2010,10,24,11,07,10.50
2010,10,24,11,08,10.60
2010,10,24,11,09,10.60
2010,10,24,11,10,10.60
2010,10,24,11,11,10.60
2010,10,24,11,12,10.60
2010,10,24,11,13,10.60
2010,10,24,11,14,10.60
2010,10,24,11,15,10.60
2010,10,24,11,16,10.60
2010,10,24,11,17,10.60
2010,10,24,11,18,10.60
2010,10,24,11,19,10.60
2010,10,24,11,20,10.60
2010,10,24,11,21,10.60
2010,10,24,11,22,10.60
2010,10,24,11,23,10.60
2010,10,24,11,24,10.70
2010,10,24,11,25,10.70
2010,10,24,11,26,10.70
2010,10,24,11,27,10.70
2010,10,24,11,28,10.70
2010,10,24,11,29,10.70
2010,10,24,11,30,10.70
2010,10,24,11,31,10.80
2010,10,24,11,32,10.80
2010,10,24,11,33,10.80
2010,10,24,11,34,10.90
2010,10,24,11,35,10.90
2010,10,24,11,36,10.90
2010,10,24,11,37,11.00
2010,10,24,11,38,11.00
2010,10,24,11,39,11.00
2010,10,24,11,40,11.00
2010,10,24,11,41,11.00
2010,10,24,11,42,11.10
2010,10,24,11,43,11.10
2010,10,24,11,44,11.10
2010,10,24,11,45,11.20
2010,10,24,11,46,11.20
2010,10,24,11,47,11.10
2010,10,24,11,48,11.10
2010,10,24,11,49,11.20
2010,10,24,11,50,11.20
2010,10,24,11,51,11.20
2010,10,24,11,52,11.20
2010,10,24,11,53,11.20
2010,10,24,11,54,11.20
2010,10,24,11,55,11.20
2010,10,24,11,56,11.30
2010,10,24,11,57,11.30
2010,10,24,11,58,11.40
2010,10,24,11,59,11.40
2010,10,24,13,00,11.60
2010,10,24,13,01,11.60
2010,10,24,13,02,11.60
2010,10,24,13,03,11.60
2010,10,24,13,04,11.60
2010,10,24,13,05,11.60
2010,10,24,13,06,11.70
2010,10,24,13,07,11.70
2010,10,24,13,08,11.70
2010,10,24,13,09,11.70
2010,10,24,13,10,11.80
2010,10,24,13,11,11.80
2010,10,24,13,12,11.90
2010,10,24,13,13,11.90
2010,10,24,13,14,12.00
2010,10,24,13,15,12.00
2010,10,24,13,16,12.10
2010,10,24,13,17,12.10
2010,10,24,13,18,12.20
2010,10,24,13,19,12.20
2010,10,24,13,20,12.30
2010,10,24,13,21,12.30
2010,10,24,13,22,12.30
2010,10,24,13,23,12.20
2010,10,24,13,24,12.20
2010,10,24,13,25,12.30
2010,10,24,13,26,12.30
2010,10,24,13,27,12.30
2010,10,24,13,28,12.30
2010,10,24,13,29,12.40
2010,10,24,13,30,12.40
2010,10,24,13,31,12.50
2010,10,24,13,32,12.50
2010,10,24,13,33,12.60
2010,10,24,13,34,12.60
2010,10,24,13,35,12.70
2010,10,24,13,36,12.60
2010,10,24,13,37,12.50
2010,10,24,13,38,12.50
2010,10,24,13,39,12.40
2010,10,24,13,40,12.30
2010,10,24,13,41,12.20
2010,10,24,13,42,12.10
2010,10,24,13,43,12.00
2010,10,24,13,44,12.00
2010,10,24,13,45,11.90
2010,10,24,13,46,11.90
2010,10,24,13,47,11.90
2010,10,24,13,48,11.80
2010,10,24,13,49,11.70
2010,10,24,13,50,11.70
2010,10,24,13,51,11.60
2010,10,24,13,52,11.60
2010,10,24,13,53,11.60
2010,10,24,13,54,11.60
2010,10,24,13,55,11.50
2010,10,24,13,56,11.40
2010,10,24,13,57,11.40
2010,10,24,13,58,11.40
2010,10,24,13,59,11.40
2010,10,24,14,00,11.30
2010,10,24,14,01,11.30
2010,10,24,14,02,11.30
2010,10,24,14,03,11.30
2010,10,24,14,04,11.30
2010,10,24,14,05,11.20
2010,10,24,14,07,11.20
2010,10,24,14,08,11.20
2010,10,24,14,09,11.20
2010,10,24,14,10,11.20
2010,10,24,14,11,11.20
2010,10,24,14,12,11.20
2010,10,24,14,13,11.20
2010,10,24,14,14,11.20
2010,10,24,14,15,11.20
2010,10,24,14,16,11.20
2010,10,24,14,17,11.10
2010,10,24,14,18,11.10
2010,10,24,14,19,11.10
2010,10,24,14,20,11.10
2010,10,24,14,21,11.10
2010,10,24,14,22,11.10
2010,10,24,14,23,11.10
2010,10,24,14,24,11.10
2010,10,24,14,25,11.00
2010,10,24,14,26,11.00
2010,10,24,14,27,11.00
2010,10,24,14,28,11.00
2010,10,24,14,29,11.10
2010,10,24,14,30,11.10
2010,10,24,14,31,11.10
2010,10,24,14,32,11.10
2010,10,24,14,33,11.00
2010,10,24,14,34,11.00
2010,10,24,14,35,11.00
2010,10,24,14,36,11.00
2010,10,24,14,37,11.00
2010,10,24,14,38,11.00
2010,10,24,14,39,10.90
2010,10,24,14,40,10.90
2010,10,24,14,41,10.90
2010,10,24,14,42,11.00
2010,10,24,14,43,11.00
2010,10,24,14,44,11.00
2010,10,24,14,45,11.10
2010,10,24,14,46,11.10
2010,10,24,14,47,11.10
2010,10,24,14,48,11.10
2010,10,24,14,49,11.10
2010,10,24,14,50,11.10
2010,10,24,14,51,11.10
2010,10,24,14,52,11.10
2010,10,24,14,53,11.10
2010,10,24,14,54,11.10
2010,10,24,14,55,11.20
2010,10,24,14,56,11.20
2010,10,24,14,57,11.20
2010,10,24,14,58,11.20
2010,10,24,15,01,11.10
2010,10,24,15,02,11.10
2010,10,24,15,03,11.10
2010,10,24,15,04,11.10
2010,10,24,15,05,11.10
2010,10,24,15,06,11.10
2010,10,24,15,07,11.10
2010,10,24,15,08,11.10
2010,10,24,15,09,11.10
2010,10,24,15,10,11.10
2010,10,24,15,11,11.10
2010,10,24,15,12,11.10
2010,10,24,15,13,11.00
2010,10,24,15,14,11.00
2010,10,24,15,15,11.00
2010,10,24,15,16,11.00
2010,10,24,15,17,10.90
2010,10,24,15,18,10.90
2010,10,24,15,19,10.90
2010,10,24,15,20,10.90
2010,10,24,15,21,10.90
2010,10,24,15,22,10.90
2010,10,24,15,23,10.90
2010,10,24,15,24,10.90
2010,10,24,15,25,10.90
2010,10,24,15,26,10.90
2010,10,24,15,27,10.90
2010,10,24,15,28,10.90
2010,10,24,15,29,10.90
2010,10,24,15,30,10.90
2010,10,24,15,31,10.90
2010,10,24,15,32,10.90
2010,10,24,15,33,10.90
2010,10,24,15,34,10.90
2010,10,24,15,35,11.00
2010,10,24,15,36,11.00
2010,10,24,15,37,11.00
2010,10,24,15,38,11.00
2010,10,24,15,39,11.00
2010,10,24,15,40,11.00
2010,10,24,15,41,11.10
2010,10,24,15,42,11.10
2010,10,24,15,43,11.10
2010,10,24,15,44,11.10
2010,10,24,15,45,11.10
2010,10,24,15,46,11.10
2010,10,24,15,47,11.10
2010,10,24,15,48,11.10
2010,10,24,15,49,11.10
2010,10,24,15,50,11.10
2010,10,24,15,51,11.00
2010,10,24,15,52,11.00
2010,10,24,15,53,11.00
2010,10,24,15,54,11.00
2010,10,24,15,55,11.00
2010,10,24,15,56,11.00
2010,10,24,15,57,11.00
2010,10,24,15,58,11.00
2010,10,24,15,59,10.90
2010,10,24,16,00,10.90
2010,10,24,16,01,10.90
2010,10,24,16,02,10.90
2010,10,24,16,03,10.90
2010,10,24,16,04,10.80
2010,10,24,16,05,10.80
2010,10,24,16,06,10.70
2010,10,24,16,07,10.70
2010,10,24,16,08,10.70
2010,10,24,16,09,10.60
2010,10,24,16,10,10.60
2010,10,24,16,11,10.60
2010,10,24,16,12,10.50
2010,10,24,16,13,10.50
2010,10,24,16,14,10.50
2010,10,24,16,15,10.50
2010,10,24,16,16,10.50
2010,10,24,16,17,10.50
2010,10,24,16,18,10.50
2010,10,24,16,19,10.60
2010,10,24,16,20,10.60
2010,10,24,16,21,10.60
2010,10,24,16,22,10.60
2010,10,24,16,23,10.60
2010,10,24,16,24,10.60
2010,10,24,16,25,10.60
2010,10,24,16,26,10.60
2010,10,24,16,27,10.60
2010,10,24,16,28,10.60
2010,10,24,16,29,10.60
2010,10,24,16,30,10.60
2010,10,24,16,31,10.70
2010,10,24,16,32,10.70
2010,10,24,16,33,10.70
2010,10,24,16,34,10.70
2010,10,24,16,35,10.70
2010,10,24,16,36,10.70
2010,10,24,16,37,10.70
2010,10,24,16,38,10.70
2010,10,24,16,39,10.70
2010,10,24,16,40,10.70
2010,10,24,16,41,10.70
2010,10,24,16,42,10.70
2010,10,24,16,43,10.70
2010,10,24,16,44,10.70
2010,10,24,16,45,10.70
2010,10,24,16,46,10.70
2010,10,24,16,47,10.60
2010,10,24,16,48,10.60
2010,10,24,16,49,10.60
2010,10,24,16,50,10.60
2010,10,24,16,51,10.60
2010,10,24,16,52,10.60
2010,10,24,16,53,10.60
2010,10,24,16,54,10.60
2010,10,24,16,55,10.60
2010,10,24,16,56,10.60
2010,10,24,16,57,10.60
2010,10,24,16,58,10.60
2010,10,24,16,59,10.70
2010,10,24,17,00,10.70
2010,10,24,17,01,10.60
2010,10,24,17,02,10.70
2010,10,24,17,03,10.70
2010,10,24,17,04,10.70
2010,10,24,17,05,10.70
2010,10,24,17,06,10.70
2010,10,24,17,07,10.70
2010,10,24,17,08,10.70
2010,10,24,17,09,10.70
2010,10,24,17,10,10.60
2010,10,24,17,11,10.60
2010,10,24,17,12,10.60
2010,10,24,17,13,10.60
2010,10,24,17,14,10.60
2010,10,24,17,15,10.60
2010,10,24,17,16,10.50
2010,10,24,17,17,10.50
2010,10,24,17,18,10.40
2010,10,24,17,19,10.40
2010,10,24,17,20,10.30
2010,10,24,17,21,10.30
2010,10,24,17,22,10.30
2010,10,24,17,23,10.20
2010,10,24,17,24,10.20
2010,10,24,17,27,10.10
2010,10,24,17,28,10.00
2010,10,24,17,29,10.00
2010,10,24,17,30,9.90
2010,10,24,17,31,9.90
2010,10,24,17,32,9.90
2010,10,24,17,33,9.90
2010,10,24,17,34,9.80
2010,10,24,17,35,9.80
2010,10,24,17,36,9.80
2010,10,24,17,37,9.80
2010,10,24,17,38,9.70
2010,10,24,17,39,9.70
2010,10,24,17,40,9.70
2010,10,24,17,41,9.70
2010,10,24,17,42,9.70
2010,10,24,17,43,9.70
2010,10,24,17,44,9.70
2010,10,24,17,45,9.60
2010,10,24,17,46,9.60
2010,10,24,17,47,9.60
2010,10,24,17,48,9.60
2010,10,24,17,50,9.60
2010,10,24,17,51,9.60
2010,10,24,17,52,9.60
2010,10,24,17,53,9.60
2010,10,24,17,54,9.50
2010,10,24,17,55,9.50
2010,10,24,17,56,9.50
2010,10,24,17,57,9.50
2010,10,24,17,58,9.50
2010,10,24,17,59,9.40
2010,10,24,18,00,9.40
2010,10,24,18,01,9.40
2010,10,24,18,02,9.40
2010,10,24,18,03,9.40
2010,10,24,18,04,9.40
2010,10,24,18,06,9.40
2010,10,24,18,07,9.40
2010,10,24,18,08,9.40
2010,10,24,18,09,9.40
2010,10,24,18,10,9.40
2010,10,24,18,11,9.40
2010,10,24,18,12,9.40
2010,10,24,18,13,9.40
2010,10,24,18,14,9.40
2010,10,24,18,15,9.40
2010,10,24,18,16,9.40
2010,10,24,18,17,9.40
2010,10,24,18,18,9.30
2010,10,24,18,19,9.30
2010,10,24,18,20,9.30
2010,10,24,18,21,9.30
2010,10,24,18,22,9.30
2010,10,24,18,23,9.30
2010,10,24,18,24,9.30
2010,10,24,18,25,9.30
2010,10,24,18,26,9.30
2010,10,24,18,27,9.20
2010,10,24,18,28,9.20
2010,10,24,18,29,9.20
2010,10,24,18,30,9.20
2010,10,24,18,31,9.20
2010,10,24,18,32,9.20
2010,10,24,18,33,9.20
2010,10,24,18,34,9.20
2010,10,24,18,35,9.10
2010,10,24,18,36,9.10
2010,10,24,18,37,9.10
2010,10,24,18,38,9.10
2010,10,24,18,39,9.10
2010,10,24,18,40,9.00
2010,10,24,18,41,9.00
2010,10,24,18,42,9.00
2010,10,24,18,43,9.00
2010,10,24,18,44,9.00
2010,10,24,18,45,8.90
2010,10,24,18,46,8.90
2010,10,24,18,47,8.90
2010,10,24,18,48,8.90
2010,10,24,18,49,8.90
2010,10,24,18,50,8.90
2010,10,24,18,51,8.90
2010,10,24,18,52,8.90
2010,10,24,18,53,8.90
2010,10,24,18,54,8.90
2010,10,24,18,55,8.90
2010,10,24,18,56,8.90
2010,10,24,18,57,8.80
2010,10,24,18,58,8.80
2010,10,24,18,59,8.80
2010,10,24,19,00,8.80
2010,10,24,19,01,8.80
2010,10,24,19,02,8.80
2010,10,24,19,03,8.80
2010,10,24,19,04,8.80
2010,10,24,19,05,8.80
2010,10,24,19,06,8.80
2010,10,24,19,07,8.80
2010,10,24,19,08,8.80
2010,10,24,19,09,8.80
2010,10,24,19,12,8.80
2010,10,24,19,13,8.80
2010,10,24,19,14,8.80
2010,10,24,19,15,8.80
2010,10,24,19,16,8.80
2010,10,24,19,17,8.80